Airfield :
LOGIN :

Register | Disclaimer

   EN    FR    IT 

 










Legend :    VFR   Marginal VFR   IFR   Intensive IFR   Very Intensive IFR
Visi :
Ceiling :
>= 8 km
>= 3000ft
5 to 8 km
1000 to 3000 ft
1500m to 5 km
500 to 1000 ft
800 to 1500m
200 to 500 ft
< 800m
< 200 ft
Symbols :   Thunderstorms  Fog  Heavy snow  Heavy precipitations  Wind > 20 kt
SIGMETs :     Misc.  Thunderstorms  Icing  Turbulence  Mountain Waves  Volcanic Ashes







- Airport Elevation : 1411 ft
- IATA code : SZG


LOWS - Salzburg

CURRENT METAR :
  • 152150Z AUTO 15013KT 9999 NSC 16/06 Q1016

EXPIRED METARs :
  • 152120Z AUTO 15013KT 9999 NSC 16/06 Q1017
  • 152050Z 15012KT CAVOK 16/06 Q1016 NOSIG
  • 152020Z 16011KT CAVOK 15/06 Q1016 NOSIG
  • 151950Z 15009KT CAVOK 17/06 Q1016 NOSIG
  • 151920Z 16010KT 120V180 CAVOK 17/06 Q1016 NOSIG

TAF TAF LOWS
Valid from the 15 at 18:00 until the 16 at 18:00 UTC


151715Z 1518/1618 15007KT CAVOK TX22/1613Z TN10/1605Z
BECMG 1608/1610 01005KT
No reported NOTAMs for that airfield.



MET'MAP, your aeronautical weather chart ! - Copyright ORBIFLY December 2007 - Disclaimer

ORBIFLY MET'MAP TEAM :

Programming & Development : Alexandra Zaïnal
Concept & Development : Baudouin d'Aumeries
Co-Development & Prog : Marc-Olivier Méhu
Technical & hardware support : Manuel Goepfert

Contact : metmap@orbifly.com




SOURCES & CREDITS :

   NOAA